TimeCST,TemperatureF,Dew PointF,Humidity,Sea Level PressureIn,VisibilityMPH,Wind Direction,Wind SpeedMPH,Gust SpeedMPH,PrecipitationIn,Events,Conditions,WindDirDegrees,DateUTC
12:15 AM,19.9,18.3,93,30.48,10.0,SSW,3.5,-,N/A,,Clear,200,2013-01-10 06:15:00
12:55 AM,21.6,20.3,95,30.48,10.0,South,3.5,-,N/A,,Clear,170,2013-01-10 06:55:00
2:15 AM,19.8,18.5,95,30.49,10.0,SE,4.6,-,N/A,,Clear,130,2013-01-10 08:15:00
2:35 AM,20.3,18.7,93,30.48,10.0,ESE,3.5,-,N/A,,Clear,110,2013-01-10 08:35:00
2:55 AM,21.2,19.4,93,30.47,10.0,East,3.5,-,N/A,,Clear,80,2013-01-10 08:55:00
3:15 AM,23.0,20.8,91,30.47,10.0,Calm,Calm,-,N/A,,Clear,0,2013-01-10 09:15:00
3:35 AM,21.9,19.6,91,30.47,10.0,NE,3.5,-,N/A,,Clear,50,2013-01-10 09:35:00
3:55 AM,21.7,19.8,92,30.46,10.0,NE,5.8,-,N/A,,Clear,50,2013-01-10 09:55:00
4:15 AM,23.0,20.8,91,30.45,10.0,NE,4.6,-,N/A,,Clear,50,2013-01-10 10:15:00
4:35 AM,22.5,20.7,93,30.45,10.0,East,5.8,-,N/A,,Clear,80,2013-01-10 10:35:00
4:55 AM,23.2,20.5,89,30.45,10.0,ESE,5.8,-,N/A,,Clear,110,2013-01-10 10:55:00
5:15 AM,22.5,20.7,93,30.45,10.0,Calm,Calm,-,N/A,,Clear,0,2013-01-10 11:15:00
5:35 AM,23.7,21.7,92,30.44,10.0,East,4.6,-,N/A,,Clear,100,2013-01-10 11:35:00
5:55 AM,23.5,21.0,90,30.44,10.0,East,6.9,-,N/A,,Clear,90,2013-01-10 11:55:00
6:15 AM,23.9,21.2,89,30.44,10.0,ENE,5.8,-,N/A,,Clear,70,2013-01-10 12:15:00
6:55 AM,25.0,21.7,87,30.44,10.0,East,4.6,-,N/A,,Clear,100,2013-01-10 12:55:00
7:15 AM,26.8,22.1,83,30.44,10.0,East,5.8,-,N/A,,Clear,100,2013-01-10 13:15:00
7:35 AM,25.5,21.9,86,30.44,10.0,ESE,6.9,-,N/A,,Clear,110,2013-01-10 13:35:00
7:55 AM,25.7,22.5,88,30.43,10.0,ESE,6.9,-,N/A,,Clear,110,2013-01-10 13:55:00
8:15 AM,27.1,24.1,88,30.42,10.0,East,6.9,-,N/A,,Clear,100,2013-01-10 14:15:00
8:35 AM,30.6,25.7,82,30.41,10.0,ESE,5.8,-,N/A,,Clear,110,2013-01-10 14:35:00
9:15 AM,33.6,28.0,80,30.39,10.0,ESE,9.2,-,N/A,,Clear,110,2013-01-10 15:15:00
9:55 AM,34.7,27.5,75,30.38,10.0,ESE,12.7,-,N/A,,Clear,120,2013-01-10 15:55:00
10:35 AM,36.9,27.1,68,30.35,10.0,ESE,9.2,-,N/A,,Clear,120,2013-01-10 16:35:00
10:55 AM,37.4,26.4,65,30.33,10.0,ESE,15.0,18.4,N/A,,Clear,120,2013-01-10 16:55:00
11:15 AM,38.8,26.4,61,30.31,10.0,ESE,13.8,-,N/A,,Clear,110,2013-01-10 17:15:00
11:35 AM,40.8,26.6,57,30.29,10.0,ESE,16.1,-,N/A,,Clear,120,2013-01-10 17:35:00
11:55 AM,40.8,26.4,57,30.28,10.0,ESE,13.8,-,N/A,,Clear,110,2013-01-10 17:55:00
12:15 PM,41.9,26.2,54,30.26,10.0,ESE,11.5,-,N/A,,Clear,120,2013-01-10 18:15:00
12:35 PM,43.2,25.9,51,30.24,10.0,SE,13.8,18.4,N/A,,Clear,130,2013-01-10 18:35:00
12:55 PM,41.9,25.9,53,30.22,10.0,ESE,13.8,-,N/A,,Clear,110,2013-01-10 18:55:00
1:15 PM,41.9,26.4,54,30.21,10.0,ESE,16.1,-,N/A,,Clear,120,2013-01-10 19:15:00
1:35 PM,41.9,27.0,55,30.19,10.0,East,12.7,-,N/A,,Scattered Clouds,100,2013-01-10 19:35:00
1:55 PM,42.3,27.7,56,30.17,10.0,East,15.0,18.4,N/A,,Mostly Cloudy,100,2013-01-10 19:55:00
2:15 PM,42.4,28.4,58,30.17,10.0,ESE,13.8,-,N/A,Rain,Light Rain,120,2013-01-10 20:15:00
2:35 PM,40.5,31.6,71,30.16,10.0,ESE,10.4,-,N/A,Rain,Light Rain,110,2013-01-10 20:35:00
2:55 PM,39.9,31.1,71,30.15,10.0,East,10.4,-,N/A,Rain,Light Rain,100,2013-01-10 20:55:00
3:15 PM,39.9,30.9,70,30.15,10.0,East,8.1,-,N/A,,Overcast,100,2013-01-10 21:15:00
3:35 PM,39.7,31.3,72,30.13,10.0,East,11.5,-,N/A,,Overcast,100,2013-01-10 21:35:00
3:55 PM,40.3,29.3,65,30.13,10.0,ESE,16.1,-,N/A,,Overcast,120,2013-01-10 21:55:00
4:15 PM,40.3,28.9,64,30.11,10.0,ESE,15.0,21.9,N/A,,Overcast,110,2013-01-10 22:15:00
4:35 PM,38.8,31.5,75,30.10,7.0,ESE,15.0,-,N/A,Rain,Rain,110,2013-01-10 22:35:00
4:55 PM,36.9,33.6,88,30.09,3.0,ESE,16.1,21.9,0.01,Rain,Light Rain,120,2013-01-10 22:55:00
5:15 PM,36.5,34.7,93,30.08,3.0,ESE,17.3,-,0.01,Rain,Light Rain,120,2013-01-10 23:15:00
5:35 PM,36.1,34.7,94,30.07,3.0,ESE,16.1,-,0.03,Rain,Rain,120,2013-01-10 23:35:00
5:55 PM,35.8,34.7,96,30.06,7.0,ESE,15.0,-,0.03,,Overcast,120,2013-01-10 23:55:00
6:15 PM,35.8,35.1,97,30.04,2.0,ESE,15.0,24.2,0.02,Snow,Light Snow,120,2013-01-11 00:15:00
6:35 PM,35.8,35.1,97,30.04,4.0,ESE,15.0,24.2,0.02,,Overcast,120,2013-01-11 00:35:00
6:55 PM,35.8,35.1,97,30.03,7.0,ESE,11.5,-,0.02,,Overcast,120,2013-01-11 00:55:00
7:15 PM,36.0,35.1,97,30.02,5.0,SE,12.7,18.4,N/A,Rain,Light Rain,130,2013-01-11 01:15:00
7:35 PM,35.8,35.4,99,30.00,3.0,SE,15.0,-,0.01,Rain,Rain,130,2013-01-11 01:35:00
7:55 PM,36.0,35.6,99,29.99,3.0,SE,17.3,-,0.04,Rain,Rain,130,2013-01-11 01:55:00
8:15 PM,36.1,35.8,99,29.96,3.0,ESE,11.5,-,0.03,Rain,Rain,120,2013-01-11 02:15:00
8:35 PM,36.5,36.0,98,29.95,4.0,ESE,12.7,19.6,0.04,Rain,Rain,120,2013-01-11 02:35:00
8:55 PM,36.7,36.5,99,29.93,3.0,ESE,15.0,-,0.07,Rain,Light Rain,120,2013-01-11 02:55:00
9:15 PM,37.0,36.7,99,29.94,1.5,SE,16.1,21.9,0.14,,Overcast,130,2013-01-11 03:15:00
9:35 PM,37.4,36.9,98,29.92,2.0,SE,13.8,-,0.29,,Overcast,130,2013-01-11 03:35:00
9:55 PM,37.4,37.0,99,29.91,4.0,SE,15.0,-,0.35,Rain,Rain,130,2013-01-11 03:55:00
10:15 PM,37.6,37.4,99,29.89,7.0,ESE,13.8,-,0.02,Rain,Light Rain,120,2013-01-11 04:15:00
10:35 PM,37.9,37.6,99,29.88,5.0,SE,16.1,-,0.02,,Overcast,130,2013-01-11 04:35:00
11:35 PM,39.6,39.2,99,29.85,4.0,SSE,9.2,-,N/A,,Overcast,150,2013-01-11 05:35:00
11:55 PM,40.1,39.6,98,29.84,4.0,SE,13.8,-,0.03,Rain,Rain,140,2013-01-11 05:55:00